This demonstration page uses our WeatherBlox Daily Observations layout. Learn more.

Left ArrowRight Arrow

Hourly Observations for September 13, 2022

Temp ( °F °C ) Dew Point ( °F °C ) Humidity (%) Winds ( mph kmh ) Pressure ( in mb ) Visibility ( mi km ) Precip ( " mm )
12:55 am 00:55 Clear 63 17.2 47 8.3 56 56 Calm 29.93 1014 10 16 0.00 0.00
1:55 am 01:55 Clear 61 16 48 8.7 62 62 Calm 29.93 1014 10 16 0.00 0.00
2:55 am 02:55 Clear 60 15.3 48 9 66 66 Calm 29.93 1013 10 16 0.00 0.00
3:55 am 03:55 Clear 58 14.7 49 9.3 70 70 Calm 29.93 1013 10 16 0.00 0.00
4:55 am 04:55 Clear 56 13.5 49 9.2 75 75 Calm 29.93 1013 10 16 0.00 0.00
5:55 am 05:55 Clear 56 13.4 48 8.9 74 74 E 3 6 29.93 1014 10 16 0.00 0.00
6:55 am 06:55 Clear 55 13 48 9.1 77 77 E 3 6 29.94 1014 10 16 0.00 0.00
7:55 am 07:55 Sunny 57 14 49 9.2 73 73 E 3 6 29.94 1014 10 16 0.00 0.00
8:55 am 08:55 Sunny 62 16.5 51 10.3 67 67 ESE 3 6 29.95 1014 10 16 0.00 0.00
9:55 am 09:55 Sunny 67 19.3 52 11.1 59 59 SE 7 11 29.95 1014 10 16 0.00 0.00
10:55 am 10:55 Sunny 71 21.8 54 12.1 54 54 SE 7 11 29.95 1014 10 16 0.00 0.00
11:55 am 11:55 Sunny 77 25 55 12.9 47 47 SE 8 13 29.95 1014 10 16 0.00 0.00
12:55 pm 12:55 Sunny 80 26.9 56 13.2 43 43 SSE 7 11 29.93 1014 10 16 0.00 0.00
1:55 pm 13:55 Sunny 83 28.6 57 13.7 40 40 ESE 10 17 29.92 1013 10 16 0.00 0.00
2:55 pm 14:55 Sunny 86 29.9 56 13.2 36 36 SE 13 20 29.90 1013 10 16 0.00 0.00
3:55 pm 15:55 Sunny 87 30.3 54 12.2 33 33 SSE 15 24 29.88 1012 10 16 0.00 0.00
4:55 pm 16:55 Sunny 86 29.8 56 13.5 37 37 SE 13 20 29.88 1012 10 16 0.00 0.00
5:55 pm 17:55 Sunny 83 28.6 60 15.5 45 45 ESE 8 13 29.88 1012 10 16 0.00 0.00
6:55 pm 18:55 Sunny 80 26.7 61 16 52 52 E 5 7 29.90 1012 10 16 0.00 0.00
7:55 pm 19:55 Clear 76 24.5 60 15.4 57 57 E 5 7 29.90 1012 10 16 0.00 0.00
8:55 pm 20:55 Clear 74 23.4 60 15.4 61 61 E 6 9 29.92 1013 10 16 0.00 0.00
9:55 pm 21:55 Clear 72 22.2 60 15.3 65 65 ESE 6 9 29.93 1013 10 16 0.00 0.00
10:55 pm 22:55 Clear 69 20.5 60 15.3 72 72 ESE 8 13 29.93 1013 10 16 0.00 0.00
11:55 pm 23:55 Clear 68 19.9 59 14.9 73 73 ESE 5 7 29.94 1014 10 16 0.00 0.00

Powered by AerisWeather